| time (UTC) | temp C | wind direction | speed KPH | gust KPH | rain 1hr cm | rain 24hr cm | rain mn cm | humidity % | barometer mb |
| 20260503224521 | 18 | 51 | 1.6 | 6.4 | 0.00 | 0.00 | 0.00 | 17 | 1018.2 |
| 20260503223024 | 18 | 350 | 8.0 | 17.7 | 0.00 | 0.00 | 0.00 | 16 | 1018.1 |
| 20260503221528 | 18 | 236 | 1.6 | 11.3 | 0.00 | 0.00 | 0.00 | 16 | 1018.2 |
| 20260503220016 | 18 | 5 | 6.4 | 17.7 | 0.00 | 0.00 | 0.00 | 14 | 1018.0 |
| 20260503214526 | 18 | 240 | 3.2 | 14.5 | 0.00 | 0.00 | 0.00 | 15 | 1018.3 |
| 20260503213025 | 18 | 175 | 4.8 | 14.5 | 0.00 | 0.00 | 0.00 | 16 | 1018.3 |
| 20260503211525 | 19 | 186 | 3.2 | 8.0 | 0.00 | 0.00 | 0.00 | 15 | 1018.3 |
| 20260503210028 | 18 | 126 | 6.4 | 20.9 | 0.00 | 0.00 | 0.00 | 15 | 1018.5 |
| 20260503204526 | 18 | 322 | 3.2 | 25.7 | 0.00 | 0.00 | 0.00 | 15 | 1018.7 |
| 20260503203024 | 19 | 185 | 3.2 | 16.1 | 0.00 | 0.00 | 0.00 | 18 | 1018.8 |
| 20260503201526 | 18 | 103 | 4.8 | 12.9 | 0.00 | 0.00 | 0.00 | 17 | 1018.8 |
| 20260503200028 | 18 | 128 | 4.8 | 20.9 | 0.00 | 0.00 | 0.00 | 18 | 1019.1 |
| 20260503194527 | 18 | 189 | 6.4 | 17.7 | 0.00 | 0.00 | 0.00 | 17 | 1019.4 |
| 20260503193032 | 18 | 326 | 6.4 | 20.9 | 0.00 | 0.00 | 0.00 | 17 | 1019.6 |
| 20260503191525 | 18 | 38 | 3.2 | 16.1 | 0.00 | 0.00 | 0.00 | 19 | 1019.6 |
| 20260503190028 | 17 | 335 | 9.7 | 22.5 | 0.00 | 0.00 | 0.00 | 19 | 1019.8 |
| 20260503184536 | 18 | 297 | 3.2 | 16.1 | 0.00 | 0.00 | 0.00 | 24 | 1020.0 |
| 20260503183026 | 17 | 322 | 3.2 | 12.9 | 0.00 | 0.00 | 0.00 | 26 | 1019.9 |
| 20260503181522 | 16 | 150 | 1.6 | 9.7 | 0.00 | 0.00 | 0.00 | 27 | 1020.1 |
| 20260503180018 | 16 | 101 | 8.0 | 12.9 | 0.00 | 0.00 | 0.00 | 27 | 1020.4 |
| 20260503174512 | 16 | 105 | 0.0 | 9.7 | 0.00 | 0.00 | 0.00 | 29 | 1020.5 |
| 20260503173016 | 16 | 347 | 6.4 | 14.5 | 0.00 | 0.00 | 0.00 | 26 | 1020.7 |
| 20260503171521 | 16 | 196 | 3.2 | 14.5 | 0.00 | 0.00 | 0.00 | 26 | 1021.0 |
| 20260503081518 | 1 | 84 | 0.0 | 0.0 | 0.00 | 0.00 | 0.00 | 63 | 1019.7 |
| 20260503071514 | 1 | 84 | 0.0 | 0.0 | 0.00 | 0.00 | 0.00 | 66 | 1019.3 |
| 20260503054526 | 3 | 84 | 0.0 | 0.0 | 0.00 | 0.00 | 0.00 | 65 | 1019.2 |
| 20260503053032 | 3 | 84 | 0.0 | 0.0 | 0.00 | 0.00 | 0.00 | 65 | 1019.3 |
| 20260503051524 | 3 | 84 | 0.0 | 0.0 | 0.00 | 0.00 | 0.00 | 65 | 1019.3 |
| 20260503050014 | 3 | 84 | 0.0 | 0.0 | 0.00 | 0.00 | 0.00 | 64 | 1019.3 |
| 20260503044519 | 3 | 84 | 0.0 | 0.0 | 0.00 | 0.00 | 0.00 | 64 | 1019.2 |
| 20260503043022 | 3 | 84 | 0.0 | 0.0 | 0.00 | 0.00 | 0.00 | 62 | 1019.2 |
| 20260503041525 | 3 | 84 | 0.0 | 0.0 | 0.00 | 0.00 | 0.00 | 62 | 1019.0 |
| 20260503040034 | 3 | 96 | 0.0 | 4.8 | 0.00 | 0.00 | 0.00 | 62 | 1019.0 |
| 20260503034532 | 3 | 96 | 0.0 | 0.0 | 0.00 | 0.00 | 0.00 | 60 | 1019.0 |
| 20260503033020 | 4 | 96 | 0.0 | 0.0 | 0.00 | 0.00 | 0.00 | 59 | 1019.0 |
| 20260503031522 | 4 | 96 | 0.0 | 0.0 | 0.00 | 0.00 | 0.00 | 58 | 1018.7 |
| 20260503030009 | 5 | 96 | 0.0 | 0.0 | 0.00 | 0.00 | 0.00 | 57 | 1018.7 |
| 20260503024507 | 5 | 96 | 0.0 | 0.0 | 0.00 | 0.00 | 0.00 | 55 | 1018.7 |
| 20260503023004 | 5 | 96 | 0.0 | 0.0 | 0.00 | 0.00 | 0.00 | 54 | 1018.4 |
| 20260503021507 | 6 | 96 | 0.0 | 0.0 | 0.00 | 0.00 | 0.00 | 52 | 1018.2 |
| 20260503020005 | 6 | 96 | 0.0 | 0.0 | 0.00 | 0.00 | 0.00 | 51 | 1018.0 |
| 20260503014505 | 7 | 96 | 0.0 | 0.0 | 0.00 | 0.00 | 0.00 | 48 | 1017.9 |
| 20260503013009 | 7 | 96 | 0.0 | 0.0 | 0.00 | 0.00 | 0.00 | 46 | 1017.7 |
| 20260503011508 | 8 | 96 | 0.0 | 0.0 | 0.00 | 0.00 | 0.00 | 44 | 1017.6 |
| 20260503010008 | 9 | 96 | 0.0 | 0.0 | 0.00 | 0.00 | 0.00 | 40 | 1017.4 |
| 20260503004504 | 10 | 96 | 0.0 | 3.2 | 0.00 | 0.00 | 0.00 | 37 | 1017.3 |
| 20260503003009 | 10 | 17 | 0.0 | 4.8 | 0.00 | 0.00 | 0.00 | 35 | 1017.0 |
| 20260503001509 | 10 | 324 | 0.0 | 4.8 | 0.00 | 0.00 | 0.00 | 33 | 1016.7 |
| 20260503000008 | 10 | 305 | 4.8 | 17.7 | 0.00 | 0.00 | 0.00 | 32 | 1016.6 |
| 20260502234507 | 11 | 344 | 1.6 | 9.7 | 0.00 | 0.00 | 0.00 | 32 | 1016.4 |
| 20260502233005 | 11 | 290 | 0.0 | 11.3 | 0.00 | 0.00 | 0.00 | 30 | 1016.3 |
| 20260502231515 | 11 | 351 | 6.4 | 14.5 | 0.00 | 0.00 | 0.00 | 28 | 1016.1 |
| 20260502230009 | 12 | 274 | 4.8 | 20.9 | 0.00 | 0.00 | 0.00 | 27 | 1015.8 |